TimePST,TemperatureF,Dew PointF,Humidity,Sea Level PressureIn,VisibilityMPH,Wind Direction,Wind SpeedMPH,Gust SpeedMPH,PrecipitationIn,Events,Conditions,WindDirDegrees,DateUTC
12:53 AM,42.1,37.9,85,30.09,10.0,Calm,Calm,-,N/A,,Clear,0,2012-12-08 08:53:00
1:53 AM,39.9,37.0,89,30.08,10.0,Calm,Calm,-,N/A,,Clear,0,2012-12-08 09:53:00
3:53 AM,39.9,37.0,89,30.07,10.0,Calm,Calm,-,N/A,,Clear,0,2012-12-08 11:53:00
4:53 AM,37.0,35.1,93,30.07,10.0,Calm,Calm,-,N/A,,Clear,0,2012-12-08 12:53:00
5:53 AM,37.9,36.0,93,30.07,10.0,Calm,Calm,-,N/A,,Clear,0,2012-12-08 13:53:00
6:53 AM,37.9,35.1,89,30.08,10.0,Calm,Calm,-,N/A,,Clear,0,2012-12-08 14:53:00
7:53 AM,39.0,36.0,89,30.08,10.0,Calm,Calm,-,N/A,,Clear,0,2012-12-08 15:53:00
8:53 AM,43.0,37.9,82,30.10,10.0,Calm,Calm,-,N/A,,Clear,0,2012-12-08 16:53:00
9:53 AM,46.9,42.1,83,30.11,10.0,WNW,3.5,-,N/A,,Clear,290,2012-12-08 17:53:00
10:53 AM,51.1,45.0,80,30.12,10.0,Calm,Calm,-,N/A,,Clear,0,2012-12-08 18:53:00
11:53 AM,57.0,39.0,51,30.09,10.0,ENE,11.5,-,N/A,,Clear,60,2012-12-08 19:53:00
12:53 PM,59.0,36.0,42,30.06,10.0,East,12.7,-,N/A,,Clear,80,2012-12-08 20:53:00
1:53 PM,59.0,33.1,38,30.04,10.0,East,9.2,-,N/A,,Clear,80,2012-12-08 21:53:00
2:53 PM,59.0,34.0,39,30.03,10.0,East,4.6,-,N/A,,Clear,90,2012-12-08 22:53:00
3:53 PM,57.0,37.0,47,30.03,10.0,East,3.5,-,N/A,,Clear,90,2012-12-08 23:53:00
5:53 PM,53.1,39.9,61,30.05,10.0,Calm,Calm,-,N/A,,Clear,0,2012-12-09 01:53:00
6:53 PM,51.1,39.9,66,30.06,10.0,Calm,Calm,-,N/A,,Clear,0,2012-12-09 02:53:00
7:53 PM,48.0,39.0,71,30.07,10.0,East,3.5,-,N/A,,Clear,80,2012-12-09 03:53:00
8:53 PM,46.9,39.0,74,30.08,10.0,Calm,Calm,-,N/A,,Clear,0,2012-12-09 04:53:00
9:53 PM,45.0,37.9,76,30.08,10.0,Calm,Calm,-,N/A,,Clear,0,2012-12-09 05:53:00
10:53 PM,44.1,37.9,79,30.09,10.0,Calm,Calm,-,N/A,,Clear,0,2012-12-09 06:53:00
11:53 PM,48.9,35.1,59,30.10,10.0,ESE,4.6,-,N/A,,Clear,110,2012-12-09 07:53:00